This demonstration page uses our WeatherBlox Daily Observations layout. Learn more.

Left ArrowRight Arrow

39.12711, -84.51439

Hourly Observations for January 30, 2022

Temp ( °F °C ) Dew Point ( °F °C ) Humidity (%) Winds ( mph kmh ) Pressure ( in mb ) Visibility ( mi km ) Precip ( " mm )
12:53 am 00:53 Mostly Clear 18 -7.8 11 -11.7 74 74 SSW 3 6 30.06 1018 10 16 0.00 0.00
1:53 am 01:53 Mostly Cloudy 19 -7.2 11 -11.7 71 71 SW 6 9 30.03 1017 10 16 0.00 0.00
2:53 am 02:53 Partly Cloudy 18 -7.8 10 -12.2 71 71 S 5 7 30.01 1016 10 16 0.00 0.00
3:53 am 03:53 Clear 19 -7.2 11 -11.7 71 71 Calm 29.98 1015 10 16 0.00 0.00
4:53 am 04:53 Clear 17 -8.3 11 -11.7 77 77 SSW 5 7 29.94 1014 10 16 0.00 0.00
5:53 am 05:53 Clear 17 -8.3 10 -12.2 74 74 Calm 29.92 1013 10 16 0.00 0.00
6:53 am 06:53 Clear 17 -8.3 12 -11.1 80 80 Calm 29.92 1013 10 16 0.00 0.00
7:53 am 07:53 Sunny 18 -7.8 14 -10 84 84 ENE 3 6 29.92 1013 10 16 0.00 0.00
8:53 am 08:53 Sunny 21 -6.1 15 -9.4 78 78 Calm 29.92 1013 10 16 0.00 0.00
9:53 am 09:53 Sunny 25 -3.9 16 -8.9 69 69 Calm 29.94 1014 10 16 0.00 0.00
10:53 am 10:53 Sunny 30 -1.1 17 -8.3 58 58 S 6 9 29.93 1014 10 16 0.00 0.00
11:53 am 11:53 Sunny 34 1.1 18 -7.8 52 52 WSW 8 13 29.91 1013 10 16 0.00 0.00
12:53 pm 12:53 Sunny 36 2.2 19 -7.2 50 50 WSW 3 6 29.90 1013 10 16 0.00 0.00
1:53 pm 13:53 Sunny 37 2.8 20 -6.7 50 50 WSW 5 7 29.91 1013 10 16 0.00 0.00
2:53 pm 14:53 Sunny 40 4.4 22 -5.6 49 49 WSW 8 13 29.91 1013 10 16 0.00 0.00
3:53 pm 15:53 Sunny 41 5 22 -5.6 47 47 W 8 13 29.93 1014 10 16 0.00 0.00
4:18 pm 16:18 Sunny 41 5 22 -5.6 47 47 WNW 8 13 29.95 1014 10 16 0.00 0.00
4:53 pm 16:53 Sunny 40 4.4 22 -5.6 49 49 WNW 12 19 29.96 1015 10 16 0.00 0.00
5:53 pm 17:53 Cloudy 38 3.3 22 -5.6 52 52 NNW 6 9 30.00 1016 10 16 0.00 0.00
6:53 pm 18:53 Mostly Clear 34 1.1 22 -5.6 61 61 NNW 7 11 30.05 1018 10 16 0.00 0.00
7:53 pm 19:53 Clear 33 0.6 21 -6.1 61 61 N 5 7 30.08 1019 10 16 0.00 0.00
8:53 pm 20:53 Clear 29 -1.7 21 -6.1 72 72 NNE 5 7 30.10 1019 10 16 0.00 0.00
9:53 pm 21:53 Clear 30 -1.1 20 -6.7 66 66 N 5 7 30.12 1020 10 16 0.00 0.00
10:53 pm 22:53 Clear 24 -4.4 20 -6.7 84 84 Calm 30.11 1020 10 16 0.00 0.00
11:53 pm 23:53 Clear 24 -4.4 21 -6.1 88 88 Calm 30.12 1020 10 16 0.00 0.00

Powered by AerisWeather